sat.trackr.live / text

‹ back to catalog

STARLINK-37081

NORAD 68229 · 2026-053Y

PAYLOAD ACTIVE UNKNOWN

§ Identity

Operator
Country
US
Launch date
2026-03-17
Launch site
AFWTR
Launch vehicle
Mass (kg)
RCS (m²)

Purposes: comms

External: N2YO · Heavens-Above · Gunter

§ Orbital elements

Epoch: 2026-05-25T04:00:03.998880Z

Period
92.18 min
Inclination
97.2859°
Eccentricity
0.0001645
Mean motion
15.62101154 rev/d
Perigee alt
380.5 km
Apogee alt
382.7 km
Semi-major
6,759.7 km
B*
-2.4299e-2
RAAN
23.1958°
Arg perigee
90.2144°
Mean anomaly
37.1099°
Rev number
593

§ Raw data

STARLINK-370811 68229U 26053Y   26145.16671295 -.01883115  00000+0 -24299-1 0  99932 68229  97.2859  23.1958 0001645  90.2144  37.1099 15.62101154  5935

JSON: /api/v1/satellites/68229 · /tle

For live sub-satellite position, see the globe view (requires WebGL).

§ Visibility from observer

Set your observer location to see the next 7 days of passes ≥ 10°. The values pass through the URL so the page stays shareable.

No JS? Fill the form by hand. The geolocation button needs JavaScript.